Language selection

My Weather Profile Weather Topics  | 

Atlantic - Labrador: Past 24 Hour Conditions

 

Cartwright Airport

10:00 PM ADT 18 June 2021
Disclaimer

This table is a summary of hourly weather conditions for the past 24 hours.
Please note that these observations might not always be representative of weather conditions over their associated marine area.

Date / Time
(ADT)
Wind(knots) Conditions Visibility(km) Pressure(kPa) Air tempC) Relative humidity(%) Dew pointC) Humidex
18 June 2021
22:00 WSW 7 gust 15 Light Rain 16 100.4 18 70 12 *
21:00 S 8 gust 15 Cloudy 16 100.3 21 54 11 23
20:00 S 8 gust 16 Mostly Cloudy 16 100.3 22 52 11 23
19:00 SSW 8 gust 15 Mostly Cloudy 16 100.2 22 48 11 24
18:00 SSW 11 gust 18 Mostly Cloudy 16 100.3 23 43 10 24
17:00 SSW 10 gust 16 Mostly Cloudy 16 100.3 23 44 10 24
16:00 SSW 13 gust 21 Cloudy 16 100.3 21 47 10 22
15:00 SSW 9 gust 19 Mostly Cloudy 16 100.3 21 48 10 22
14:00 SW 11 gust 19 Sunny 16 100.3 21 49 10 22
13:00 SSW 10 gust 17 Mostly Cloudy 16 100.3 19 54 10 *
12:00 SW 8 gust 18 Sunny 16 100.4 18 58 10 *
11:00 SW 11 gust 20 Sunny 16 100.4 16 63 9 *
10:00 SSW 9 gust 15 Mainly Sunny 16 100.4 14 73 9 *
9:00 WSW 5 Mostly Cloudy 16 100.4 12 82 9 *
8:00 SW 8 Cloudy 16 100.4 11 90 10 *
7:00 W 5 Cloudy 16 100.4 10 96 9 *
6:00 WSW 2 Cloudy 16 100.4 8 100 8 *
5:00 ENE 2 Mist 8 100.3 7 100 7 *
4:00 ENE 4 Fog 0.6 100.3 7 100 7 *
3:00 NNE 7 Fog 0.6 100.2 7 100 7 *
2:00 E 3 Fog 0.6 100.2 7 100 7 *
1:00 ENE 4 Fog 0.4 100.2 7 100 7 *
0:00 ENE 4 Mist 2 100.2 8 100 8 *
17 June 2021
23:00 ESE 2 Mostly Cloudy 16 100.3 8 99 8 *
22:00 NE 4 Cloudy 16 100.3 8 99 8 *

Zoom-in to make a selection

Map of Atlantic - Labrador marine weather areas Kangiqsualujjuaq Airport Cape Kakkiviak Cape Kiglapait Cartwright Airport CFB Goose Bay Hopedale Mary's Harbour Nain Airport Makkovik Airport Saglek Tukialik Bay
Legend:
buoy Buoy
land station Land Station

Atlantic - Labrador Area

Another Region

What we are doing

Date modified: